GEFSMA_prec_meanprecacc_186.txt.gz
Total_Precipitation_Accumulation
1.66 1.94 1.92 2.04 1.73 1.71 1.74 1.63 1.44 1.34 1.19 1.05 0.99 1.00 1.06 1.04 1.14 1.32 1.33 1.33 1.41 1.68 2.06 2.22 2.18 2.18 2.11 2.02 1.87 1.72 1.55 1.45 1.33 1.18 1.01 0.87 0.79 0.74 0.77 0.81 0.81 0.75 0.73
2.13 2.45 2.49 2.42 2.17 2.18 2.37 2.39 2.17 1.93 1.73 1.62 1.42 1.37 1.38 1.42 1.55 1.60 1.55 1.52 1.41 1.46 1.84 2.17 2.39 2.55 2.49 2.25 2.00 1.84 1.79 1.71 1.57 1.42 1.28 1.15 1.04 0.97 0.92 0.89 0.89 0.85 0.78
2.62 2.66 2.88 2.83 2.66 2.60 2.57 2.55 2.73 2.69 2.29 1.99 1.83 1.80 1.84 1.79 1.84 1.89 1.95 1.96 1.74 1.60 1.69 1.93 2.14 2.29 2.37 2.36 2.23 2.07 2.05 1.86 1.69 1.55 1.44 1.34 1.27 1.20 1.13 1.03 1.01 1.00 0.93
2.90 2.92 2.91 2.93 2.89 2.85 3.07 3.13 3.06 3.01 2.83 2.54 2.33 2.12 2.03 2.08 1.93 1.90 1.92 2.02 2.09 1.80 1.61 1.59 1.70 1.82 2.06 2.36 2.51 2.53 2.38 2.14 1.91 1.76 1.66 1.55 1.43 1.31 1.20 1.12 1.10 1.10 1.06
3.29 3.37 3.41 3.49 3.35 3.39 3.35 3.19 3.42 3.33 3.19 2.91 2.47 2.23 2.04 2.06 1.95 1.71 1.73 1.87 1.96 1.86 1.77 1.59 1.61 1.72 1.98 2.27 2.48 2.65 2.62 2.44 2.24 2.06 1.94 1.84 1.69 1.50 1.35 1.26 1.22 1.22 1.22
4.07 4.06 4.00 4.00 3.88 3.78 3.66 3.57 3.55 3.33 3.16 2.90 2.41 2.17 1.98 1.77 1.70 1.69 1.53 1.55 1.64 1.56 1.64 1.64 1.69 1.59 1.74 1.96 2.19 2.40 2.47 2.49 2.40 2.18 2.00 1.95 1.87 1.71 1.56 1.47 1.39 1.34 1.35
4.53 4.38 4.28 4.30 4.13 3.99 3.79 3.65 3.53 3.41 3.09 2.85 2.75 2.40 1.93 1.66 1.53 1.43 1.41 1.39 1.35 1.40 1.59 1.59 1.56 1.52 1.50 1.67 1.75 1.93 2.18 2.36 2.47 2.40 2.26 2.15 1.94 1.74 1.65 1.62 1.60 1.57 1.49
4.90 4.69 4.65 4.51 4.26 4.08 3.86 3.65 3.52 3.43 3.15 2.96 2.94 2.86 2.27 1.82 1.43 1.13 1.15 1.18 1.20 1.28 1.36 1.34 1.32 1.34 1.39 1.47 1.47 1.64 1.89 2.13 2.32 2.41 2.37 2.14 1.97 1.83 1.76 1.76 1.77 1.76 1.70
5.29 5.08 4.96 4.64 4.38 4.10 3.79 3.51 3.33 3.26 3.17 3.06 2.89 2.97 2.59 2.08 1.64 1.29 1.09 1.01 1.08 1.21 1.25 1.26 1.23 1.18 1.25 1.37 1.48 1.50 1.55 1.60 1.80 2.02 2.10 2.08 2.04 1.93 1.85 1.84 1.83 1.85 1.89
4.70 4.53 4.46 4.25 3.98 3.69 3.48 3.21 3.01 2.91 3.01 2.89 2.78 2.59 2.41 2.12 1.88 1.57 1.25 1.09 1.07 1.12 1.18 1.20 1.21 1.22 1.22 1.30 1.42 1.44 1.38 1.30 1.39 1.56 1.68 1.70 1.74 1.73 1.74 1.76 1.77 1.81 1.89
3.99 3.70 3.58 3.46 3.28 3.07 2.88 2.79 2.74 2.64 2.60 2.51 2.39 2.31 2.24 2.12 1.86 1.63 1.40 1.19 1.14 1.14 1.16 1.19 1.31 1.32 1.30 1.32 1.31 1.32 1.28 1.18 1.18 1.29 1.36 1.40 1.45 1.54 1.62 1.60 1.61 1.68 1.82
3.32 2.91 2.70 2.59 2.48 2.35 2.31 2.31 2.32 2.29 2.26 2.24 2.20 2.11 2.04 2.02 1.88 1.76 1.53 1.34 1.32 1.23 1.18 1.16 1.17 1.22 1.27 1.28 1.29 1.34 1.13 1.05 1.04 1.07 1.17 1.27 1.32 1.38 1.43 1.51 1.59 1.67 1.77
2.70 2.34 2.13 2.06 2.00 1.95 1.92 1.97 2.00 1.97 1.93 1.96 1.96 1.91 1.89 1.86 1.81 1.78 1.81 1.68 1.43 1.19 1.11 1.12 1.10 1.09 1.12 1.20 1.30 1.34 1.08 1.00 0.99 1.05 1.10 1.12 1.19 1.24 1.28 1.30 1.38 1.48 1.53
2.19 1.96 1.79 1.71 1.62 1.52 1.51 1.59 1.66 1.71 1.68 1.73 1.76 1.82 1.79 1.73 1.68 1.64 1.68 1.75 1.70 1.49 1.29 1.20 1.19 1.18 1.18 1.20 1.33 1.33 1.12 1.18 1.09 1.10 1.11 1.06 1.07 1.07 1.06 1.04 1.05 1.12 1.18
1.63 1.48 1.38 1.31 1.26 1.22 1.25 1.34 1.41 1.37 1.37 1.44 1.53 1.63 1.67 1.70 1.71 1.65 1.66 1.71 1.78 1.73 1.58 1.39 1.35 1.30 1.29 1.31 1.44 1.14 1.14 1.32 1.21 1.12 1.05 1.01 0.99 0.93 0.87 0.83 0.80 0.78 0.79
1.34 1.22 1.13 1.07 1.06 1.04 1.05 1.06 1.12 1.12 1.10 1.14 1.26 1.38 1.46 1.54 1.67 1.69 1.74 1.76 1.77 1.77 1.70 1.48 1.41 1.39 1.32 1.26 1.47 1.23 1.21 1.27 1.11 0.99 0.90 0.84 0.81 0.77 0.74 0.75 0.75 0.73 0.71
1.38 1.23 1.08 1.05 1.01 0.97 0.92 0.93 0.94 0.94 0.99 1.01 1.03 1.11 1.22 1.28 1.38 1.46 1.51 1.53 1.62 1.66 1.67 1.56 1.46 1.45 1.39 1.37 1.39 1.26 1.16 1.08 1.02 0.95 0.81 0.74 0.71 0.67 0.66 0.69 0.72 0.72 0.70
1.05 0.97 0.90 0.90 0.85 0.82 0.81 0.80 0.77 0.76 0.78 0.81 0.84 0.91 0.98 1.02 1.10 1.13 1.20 1.27 1.33 1.41 1.47 1.57 1.63 1.55 1.45 1.43 1.35 1.20 1.01 0.89 0.86 0.88 0.79 0.74 0.73 0.73 0.73 0.73 0.72 0.71 0.67
0.95 0.93 0.88 0.81 0.76 0.72 0.70 0.67 0.66 0.63 0.61 0.63 0.68 0.74 0.81 0.83 0.86 0.86 0.91 0.96 1.04 1.16 1.32 1.41 1.48 1.50 1.46 1.45 1.42 1.17 1.01 0.98 0.76 0.74 0.69 0.70 0.71 0.70 0.69 0.67 0.63 0.60 0.57
0.88 0.93 0.85 0.76 0.67 0.64 0.61 0.63 0.65 0.62 0.57 0.56 0.57 0.62 0.65 0.65 0.63 0.66 0.68 0.73 0.82 1.00 1.17 1.26 1.22 1.24 1.30 1.25 1.30 1.20 1.08 0.97 0.82 0.61 0.57 0.53 0.56 0.56 0.55 0.52 0.50 0.48 0.47
0.74 0.76 0.72 0.67 0.61 0.56 0.53 0.55 0.56 0.55 0.53 0.49 0.47 0.48 0.48 0.51 0.53 0.53 0.53 0.60 0.73 0.91 1.01 1.09 1.11 1.05 1.05 1.06 1.07 1.00 0.99 0.95 0.81 0.63 0.57 0.46 0.44 0.47 0.51 0.51 0.48 0.42 0.37
0.72 0.71 0.70 0.66 0.60 0.49 0.48 0.46 0.43 0.45 0.48 0.49 0.45 0.40 0.37 0.37 0.41 0.42 0.44 0.51 0.62 0.73 0.80 0.87 0.93 0.95 0.93 0.91 0.95 0.95 0.93 0.93 0.88 0.71 0.66 0.58 0.46 0.53 0.54 0.51 0.44 0.37 0.34
0.69 0.63 0.60 0.56 0.56 0.52 0.47 0.40 0.40 0.46 0.51 0.52 0.49 0.46 0.38 0.32 0.39 0.42 0.43 0.47 0.51 0.53 0.62 0.75 0.83 0.84 0.84 0.89 0.97 0.97 0.98 0.96 0.90 0.75 0.76 0.75 0.61 0.61 0.48 0.40 0.40 0.35 0.32
0.68 0.65 0.62 0.56 0.51 0.47 0.45 0.43 0.42 0.42 0.50 0.51 0.48 0.47 0.48 0.47 0.44 0.44 0.42 0.45 0.49 0.55 0.60 0.66 0.79 0.80 0.74 0.78 0.91 0.95 0.92 0.88 0.83 0.78 0.82 0.85 0.67 0.59 0.45 0.51 0.46 0.36 0.30
0.67 0.62 0.60 0.54 0.52 0.47 0.42 0.39 0.40 0.42 0.46 0.42 0.37 0.38 0.38 0.42 0.42 0.43 0.44 0.48 0.51 0.56 0.53 0.59 0.64 0.69 0.75 0.77 0.77 0.80 0.89 0.99 0.97 0.84 0.82 0.89 0.76 0.61 0.52 0.58 0.54 0.42 0.38
0.63 0.55 0.53 0.54 0.53 0.50 0.41 0.36 0.37 0.36 0.40 0.36 0.35 0.35 0.34 0.31 0.31 0.32 0.38 0.52 0.61 0.58 0.53 0.57 0.72 0.88 0.94 0.91 0.81 0.82 0.93 1.01 1.02 1.03 0.87 0.88 0.89 0.75 0.68 0.57 0.56 0.57 0.60

GEFSMA_prec_meanprecacc_192.txt.gz
Total_Precipitation_Accumulation
1.73 2.01 1.99 2.10 1.78 1.76 1.80 1.70 1.52 1.42 1.28 1.15 1.08 1.09 1.14 1.10 1.18 1.35 1.35 1.35 1.46 1.74 2.15 2.33 2.28 2.28 2.21 2.12 1.98 1.82 1.64 1.53 1.41 1.26 1.08 0.94 0.87 0.83 0.83 0.86 0.85 0.79 0.77
2.21 2.53 2.56 2.48 2.22 2.25 2.44 2.47 2.24 2.00 1.80 1.69 1.49 1.46 1.45 1.48 1.60 1.63 1.58 1.54 1.45 1.51 1.91 2.28 2.51 2.69 2.64 2.38 2.12 1.96 1.90 1.79 1.64 1.50 1.35 1.21 1.10 1.04 1.00 0.97 0.95 0.90 0.83
2.70 2.73 2.94 2.88 2.71 2.67 2.65 2.63 2.80 2.77 2.35 2.06 1.89 1.87 1.90 1.85 1.89 1.94 1.98 1.99 1.77 1.65 1.75 2.02 2.26 2.43 2.51 2.49 2.35 2.20 2.18 1.97 1.78 1.63 1.52 1.41 1.34 1.28 1.20 1.11 1.08 1.07 1.00
3.02 3.00 2.96 2.97 2.93 2.93 3.15 3.22 3.14 3.08 2.90 2.61 2.41 2.19 2.09 2.14 1.99 1.95 1.96 2.05 2.12 1.83 1.66 1.65 1.79 1.94 2.20 2.49 2.64 2.66 2.51 2.27 2.03 1.86 1.76 1.65 1.53 1.40 1.27 1.18 1.16 1.16 1.12
3.39 3.43 3.46 3.54 3.41 3.44 3.42 3.28 3.51 3.42 3.25 2.96 2.53 2.28 2.09 2.11 2.00 1.76 1.78 1.90 1.99 1.89 1.80 1.63 1.67 1.80 2.08 2.39 2.62 2.79 2.76 2.58 2.38 2.19 2.07 1.95 1.79 1.61 1.44 1.33 1.27 1.27 1.27
4.16 4.13 4.06 4.06 3.94 3.85 3.73 3.65 3.62 3.40 3.22 2.95 2.46 2.21 2.02 1.81 1.74 1.74 1.57 1.60 1.68 1.61 1.68 1.68 1.73 1.65 1.83 2.06 2.30 2.53 2.61 2.64 2.56 2.33 2.14 2.08 1.99 1.82 1.66 1.55 1.47 1.39 1.39
4.60 4.44 4.33 4.35 4.18 4.03 3.84 3.70 3.58 3.47 3.15 2.91 2.80 2.44 1.96 1.69 1.57 1.48 1.46 1.45 1.41 1.45 1.63 1.64 1.62 1.58 1.56 1.75 1.84 2.02 2.29 2.50 2.64 2.58 2.44 2.31 2.07 1.85 1.75 1.72 1.70 1.65 1.55
4.96 4.74 4.70 4.56 4.32 4.15 3.92 3.71 3.58 3.48 3.20 3.02 2.99 2.90 2.30 1.84 1.45 1.16 1.20 1.23 1.25 1.33 1.40 1.38 1.37 1.39 1.44 1.52 1.53 1.72 1.98 2.22 2.44 2.56 2.55 2.32 2.13 1.94 1.86 1.84 1.85 1.84 1.79
5.35 5.14 5.01 4.70 4.45 4.18 3.87 3.59 3.41 3.32 3.21 3.11 2.95 3.02 2.61 2.10 1.65 1.30 1.11 1.05 1.12 1.25 1.29 1.30 1.27 1.21 1.28 1.40 1.52 1.56 1.64 1.68 1.90 2.16 2.24 2.24 2.21 2.08 1.98 1.95 1.93 1.95 1.98
4.78 4.61 4.55 4.34 4.07 3.77 3.54 3.28 3.10 3.00 3.08 2.94 2.83 2.64 2.43 2.15 1.91 1.59 1.26 1.11 1.10 1.15 1.22 1.23 1.24 1.25 1.25 1.32 1.44 1.48 1.44 1.37 1.46 1.64 1.77 1.82 1.89 1.89 1.88 1.88 1.88 1.92 2.00
4.06 3.80 3.70 3.57 3.39 3.16 2.95 2.87 2.84 2.73 2.67 2.57 2.43 2.35 2.27 2.15 1.90 1.67 1.43 1.21 1.16 1.16 1.19 1.23 1.34 1.34 1.34 1.36 1.34 1.34 1.32 1.23 1.24 1.34 1.43 1.46 1.54 1.65 1.74 1.72 1.72 1.78 1.92
3.37 3.00 2.83 2.71 2.58 2.45 2.41 2.41 2.42 2.36 2.32 2.30 2.26 2.16 2.08 2.07 1.93 1.81 1.58 1.36 1.34 1.26 1.21 1.19 1.20 1.25 1.30 1.32 1.32 1.37 1.16 1.08 1.07 1.10 1.21 1.32 1.38 1.45 1.53 1.61 1.69 1.77 1.88
2.75 2.41 2.23 2.17 2.08 2.02 2.00 2.06 2.09 2.04 1.99 2.01 2.00 1.95 1.93 1.90 1.85 1.82 1.85 1.71 1.44 1.21 1.14 1.15 1.14 1.13 1.15 1.23 1.33 1.37 1.11 1.02 1.02 1.08 1.13 1.15 1.22 1.29 1.35 1.38 1.47 1.57 1.63
2.25 2.04 1.87 1.78 1.69 1.60 1.58 1.64 1.72 1.77 1.72 1.77 1.80 1.85 1.84 1.77 1.73 1.68 1.72 1.79 1.73 1.52 1.32 1.24 1.24 1.25 1.23 1.24 1.37 1.36 1.14 1.20 1.11 1.13 1.13 1.08 1.10 1.10 1.11 1.09 1.10 1.17 1.25
1.68 1.55 1.45 1.36 1.31 1.28 1.30 1.38 1.44 1.40 1.41 1.48 1.58 1.67 1.72 1.76 1.77 1.71 1.71 1.75 1.82 1.77 1.63 1.45 1.41 1.38 1.39 1.40 1.51 1.18 1.17 1.35 1.23 1.14 1.08 1.03 1.01 0.95 0.89 0.87 0.83 0.82 0.82
1.37 1.26 1.17 1.11 1.09 1.07 1.08 1.08 1.14 1.15 1.13 1.19 1.31 1.44 1.54 1.63 1.75 1.77 1.81 1.82 1.82 1.83 1.77 1.56 1.49 1.47 1.41 1.37 1.58 1.31 1.27 1.32 1.14 1.02 0.93 0.86 0.84 0.80 0.77 0.77 0.77 0.77 0.75
1.41 1.26 1.11 1.06 1.03 0.99 0.95 0.94 0.96 0.97 1.02 1.06 1.10 1.21 1.31 1.36 1.48 1.56 1.61 1.62 1.69 1.72 1.72 1.61 1.51 1.50 1.45 1.43 1.46 1.32 1.21 1.12 1.05 0.98 0.85 0.77 0.74 0.71 0.70 0.72 0.74 0.74 0.74
1.08 1.00 0.92 0.91 0.87 0.84 0.83 0.82 0.78 0.77 0.80 0.83 0.89 0.98 1.06 1.08 1.18 1.20 1.30 1.37 1.41 1.47 1.51 1.61 1.67 1.58 1.50 1.48 1.39 1.24 1.06 0.93 0.90 0.91 0.82 0.78 0.76 0.76 0.77 0.78 0.76 0.74 0.70
0.99 0.95 0.89 0.83 0.79 0.75 0.72 0.69 0.67 0.65 0.62 0.65 0.71 0.77 0.84 0.87 0.91 0.91 0.97 1.04 1.12 1.22 1.38 1.46 1.53 1.54 1.51 1.51 1.48 1.22 1.05 1.02 0.80 0.78 0.72 0.73 0.74 0.73 0.73 0.71 0.67 0.64 0.61
0.91 0.95 0.86 0.78 0.71 0.66 0.63 0.64 0.67 0.65 0.60 0.58 0.60 0.64 0.67 0.67 0.67 0.69 0.73 0.78 0.88 1.07 1.24 1.32 1.28 1.29 1.36 1.31 1.36 1.26 1.14 1.03 0.87 0.65 0.60 0.57 0.59 0.59 0.59 0.56 0.54 0.52 0.52
0.78 0.79 0.74 0.70 0.66 0.59 0.56 0.58 0.59 0.58 0.56 0.52 0.49 0.50 0.50 0.52 0.55 0.55 0.55 0.64 0.77 0.97 1.08 1.16 1.18 1.11 1.11 1.12 1.13 1.06 1.05 1.01 0.87 0.68 0.62 0.51 0.47 0.49 0.54 0.55 0.54 0.48 0.43
0.76 0.74 0.72 0.68 0.62 0.52 0.52 0.50 0.46 0.48 0.50 0.51 0.47 0.41 0.38 0.38 0.41 0.43 0.46 0.53 0.65 0.76 0.85 0.93 0.99 1.01 0.99 0.98 1.03 1.02 1.01 1.00 0.95 0.76 0.70 0.62 0.51 0.58 0.57 0.55 0.49 0.43 0.41
0.72 0.66 0.63 0.59 0.58 0.54 0.48 0.41 0.41 0.47 0.52 0.53 0.51 0.49 0.41 0.34 0.41 0.43 0.45 0.50 0.54 0.58 0.67 0.81 0.90 0.91 0.91 0.96 1.05 1.05 1.05 1.03 0.99 0.83 0.82 0.80 0.66 0.66 0.54 0.46 0.46 0.41 0.38
0.72 0.69 0.65 0.58 0.53 0.49 0.47 0.45 0.44 0.44 0.51 0.52 0.50 0.50 0.51 0.49 0.45 0.45 0.43 0.47 0.53 0.59 0.65 0.71 0.83 0.85 0.78 0.84 0.97 1.00 0.98 0.94 0.89 0.84 0.87 0.90 0.71 0.62 0.48 0.55 0.51 0.41 0.35
0.73 0.67 0.63 0.56 0.54 0.49 0.44 0.42 0.43 0.45 0.47 0.42 0.39 0.39 0.40 0.42 0.42 0.44 0.46 0.51 0.54 0.60 0.57 0.64 0.69 0.74 0.81 0.83 0.83 0.85 0.94 1.05 1.02 0.89 0.87 0.93 0.80 0.65 0.55 0.61 0.57 0.46 0.43
0.68 0.59 0.56 0.56 0.54 0.52 0.43 0.39 0.39 0.38 0.41 0.37 0.36 0.36 0.35 0.32 0.32 0.33 0.39 0.54 0.65 0.62 0.57 0.61 0.76 0.92 0.98 0.95 0.85 0.85 0.96 1.05 1.06 1.07 0.91 0.92 0.92 0.78 0.70 0.59 0.58 0.60 0.62

GEFSMA_prec_meanprecacc_198.txt.gz
Total_Precipitation_Accumulation
1.80 2.09 2.08 2.18 1.85 1.84 1.89 1.80 1.60 1.51 1.38 1.23 1.15 1.16 1.22 1.16 1.24 1.42 1.40 1.39 1.49 1.78 2.19 2.40 2.37 2.37 2.30 2.21 2.07 1.93 1.75 1.62 1.50 1.35 1.15 1.00 0.93 0.89 0.89 0.92 0.90 0.86 0.82
2.29 2.62 2.67 2.57 2.30 2.30 2.50 2.55 2.32 2.10 1.90 1.79 1.58 1.54 1.54 1.56 1.66 1.69 1.63 1.58 1.49 1.55 1.96 2.34 2.60 2.78 2.75 2.48 2.22 2.06 2.01 1.89 1.74 1.58 1.44 1.28 1.16 1.10 1.06 1.03 1.02 0.96 0.89
2.77 2.81 3.03 2.95 2.78 2.76 2.75 2.72 2.89 2.87 2.45 2.16 2.00 1.96 1.98 1.92 1.97 2.00 2.03 2.02 1.80 1.68 1.79 2.06 2.32 2.52 2.61 2.60 2.47 2.30 2.28 2.08 1.89 1.73 1.61 1.50 1.41 1.34 1.26 1.16 1.13 1.13 1.06
3.06 3.06 3.01 3.01 2.97 2.98 3.23 3.31 3.24 3.19 3.00 2.71 2.50 2.27 2.17 2.22 2.05 2.01 2.00 2.08 2.15 1.86 1.68 1.67 1.82 2.00 2.27 2.57 2.74 2.76 2.61 2.37 2.14 1.97 1.88 1.76 1.62 1.48 1.34 1.25 1.21 1.22 1.17
3.44 3.49 3.50 3.57 3.45 3.50 3.48 3.34 3.59 3.51 3.35 3.04 2.59 2.34 2.15 2.17 2.06 1.82 1.83 1.95 2.03 1.92 1.84 1.66 1.70 1.84 2.13 2.46 2.71 2.89 2.86 2.68 2.49 2.31 2.21 2.09 1.91 1.72 1.54 1.41 1.36 1.34 1.33
4.20 4.19 4.10 4.10 3.99 3.90 3.78 3.71 3.68 3.47 3.31 3.04 2.52 2.26 2.06 1.86 1.80 1.79 1.63 1.66 1.73 1.64 1.71 1.71 1.78 1.69 1.87 2.12 2.37 2.61 2.71 2.75 2.67 2.46 2.29 2.25 2.14 1.94 1.77 1.64 1.56 1.49 1.48
4.65 4.49 4.38 4.40 4.23 4.07 3.88 3.75 3.63 3.53 3.21 2.99 2.86 2.49 2.00 1.72 1.60 1.52 1.51 1.50 1.45 1.48 1.67 1.66 1.66 1.63 1.61 1.79 1.89 2.08 2.36 2.57 2.73 2.70 2.57 2.47 2.25 2.00 1.88 1.81 1.79 1.74 1.65
5.00 4.79 4.74 4.60 4.36 4.19 3.97 3.76 3.63 3.53 3.25 3.08 3.06 2.97 2.35 1.88 1.48 1.19 1.24 1.28 1.29 1.36 1.43 1.40 1.40 1.43 1.48 1.58 1.57 1.75 2.03 2.26 2.51 2.66 2.67 2.44 2.29 2.10 2.01 1.98 1.97 1.96 1.90
5.39 5.18 5.06 4.75 4.50 4.23 3.92 3.64 3.47 3.38 3.28 3.18 3.04 3.11 2.68 2.14 1.69 1.34 1.15 1.08 1.16 1.29 1.32 1.33 1.30 1.25 1.32 1.46 1.56 1.59 1.68 1.72 1.96 2.23 2.35 2.38 2.35 2.23 2.13 2.08 2.05 2.07 2.10
4.81 4.65 4.59 4.39 4.13 3.83 3.61 3.35 3.19 3.09 3.19 3.04 2.93 2.76 2.56 2.27 2.02 1.66 1.32 1.16 1.14 1.19 1.26 1.27 1.27 1.28 1.30 1.39 1.50 1.52 1.47 1.40 1.52 1.71 1.85 1.90 1.98 2.00 2.02 2.00 1.98 2.03 2.10
4.11 3.84 3.74 3.62 3.44 3.22 3.03 2.94 2.90 2.80 2.76 2.66 2.53 2.46 2.40 2.29 2.04 1.79 1.51 1.28 1.22 1.20 1.22 1.26 1.37 1.38 1.37 1.41 1.40 1.38 1.36 1.26 1.27 1.38 1.47 1.51 1.60 1.73 1.84 1.83 1.82 1.87 2.00
3.45 3.07 2.90 2.77 2.64 2.52 2.48 2.47 2.47 2.41 2.38 2.36 2.32 2.23 2.17 2.15 2.02 1.89 1.64 1.41 1.39 1.30 1.24 1.22 1.23 1.28 1.34 1.36 1.36 1.43 1.21 1.11 1.09 1.12 1.23 1.35 1.42 1.51 1.60 1.70 1.80 1.88 1.97
2.82 2.50 2.32 2.25 2.15 2.08 2.07 2.12 2.15 2.09 2.04 2.06 2.05 2.00 1.98 1.95 1.90 1.88 1.91 1.76 1.48 1.24 1.17 1.18 1.16 1.16 1.18 1.27 1.37 1.41 1.15 1.05 1.05 1.10 1.14 1.17 1.25 1.33 1.40 1.44 1.55 1.68 1.74
2.28 2.09 1.94 1.84 1.74 1.65 1.63 1.70 1.78 1.82 1.77 1.82 1.84 1.89 1.88 1.81 1.77 1.73 1.78 1.85 1.78 1.55 1.35 1.26 1.26 1.27 1.27 1.29 1.41 1.40 1.18 1.23 1.14 1.16 1.15 1.10 1.12 1.13 1.14 1.14 1.15 1.24 1.34
1.71 1.58 1.50 1.41 1.35 1.32 1.34 1.43 1.48 1.44 1.45 1.52 1.61 1.71 1.76 1.79 1.81 1.75 1.75 1.81 1.88 1.82 1.66 1.47 1.44 1.41 1.43 1.45 1.57 1.24 1.23 1.40 1.27 1.18 1.11 1.05 1.03 0.98 0.93 0.90 0.88 0.87 0.89
1.39 1.29 1.21 1.16 1.14 1.11 1.13 1.13 1.18 1.19 1.17 1.22 1.35 1.48 1.58 1.67 1.79 1.82 1.87 1.88 1.89 1.89 1.81 1.58 1.52 1.51 1.46 1.42 1.66 1.40 1.36 1.42 1.23 1.09 0.99 0.91 0.88 0.83 0.80 0.80 0.81 0.81 0.79
1.43 1.29 1.15 1.12 1.09 1.04 0.99 0.99 1.00 1.00 1.05 1.10 1.15 1.26 1.36 1.41 1.52 1.60 1.66 1.68 1.75 1.79 1.78 1.65 1.54 1.54 1.49 1.48 1.52 1.39 1.30 1.22 1.17 1.09 0.94 0.86 0.83 0.78 0.75 0.76 0.77 0.77 0.76
1.11 1.04 0.97 0.97 0.94 0.89 0.88 0.85 0.81 0.81 0.83 0.87 0.93 1.02 1.10 1.13 1.22 1.25 1.34 1.41 1.46 1.52 1.58 1.67 1.72 1.64 1.55 1.53 1.44 1.30 1.13 1.00 0.98 0.99 0.89 0.84 0.84 0.84 0.84 0.82 0.79 0.77 0.72
1.02 1.00 0.94 0.88 0.85 0.81 0.76 0.72 0.70 0.67 0.64 0.67 0.73 0.80 0.87 0.91 0.94 0.96 1.02 1.08 1.17 1.27 1.44 1.54 1.59 1.60 1.56 1.57 1.55 1.29 1.13 1.11 0.87 0.84 0.79 0.80 0.81 0.80 0.79 0.76 0.71 0.68 0.64
0.95 1.00 0.91 0.83 0.75 0.71 0.66 0.67 0.70 0.67 0.62 0.60 0.62 0.66 0.70 0.71 0.70 0.73 0.76 0.83 0.94 1.14 1.31 1.41 1.38 1.38 1.43 1.38 1.45 1.36 1.24 1.14 0.97 0.73 0.66 0.61 0.64 0.65 0.64 0.59 0.57 0.55 0.55
0.83 0.84 0.80 0.76 0.71 0.63 0.59 0.61 0.62 0.61 0.59 0.54 0.52 0.52 0.52 0.54 0.56 0.57 0.57 0.67 0.82 1.03 1.15 1.25 1.28 1.21 1.20 1.21 1.24 1.18 1.18 1.14 1.00 0.81 0.72 0.58 0.53 0.55 0.59 0.58 0.57 0.51 0.46
0.82 0.80 0.77 0.72 0.66 0.56 0.55 0.53 0.48 0.51 0.53 0.53 0.50 0.43 0.40 0.40 0.43 0.45 0.48 0.55 0.67 0.79 0.90 1.01 1.08 1.10 1.09 1.08 1.14 1.15 1.14 1.14 1.09 0.91 0.85 0.74 0.59 0.65 0.64 0.60 0.54 0.47 0.47
0.81 0.71 0.67 0.62 0.60 0.56 0.50 0.43 0.43 0.49 0.54 0.55 0.53 0.52 0.43 0.35 0.42 0.46 0.47 0.52 0.55 0.59 0.69 0.84 0.95 0.97 0.98 1.05 1.16 1.16 1.16 1.14 1.10 0.95 0.95 0.93 0.78 0.76 0.61 0.51 0.51 0.45 0.43
0.79 0.73 0.69 0.63 0.57 0.52 0.49 0.47 0.46 0.45 0.53 0.54 0.51 0.52 0.53 0.52 0.47 0.46 0.45 0.49 0.54 0.61 0.67 0.73 0.87 0.89 0.83 0.90 1.06 1.10 1.07 1.03 0.98 0.93 0.96 1.00 0.81 0.72 0.56 0.62 0.56 0.44 0.39
0.77 0.70 0.67 0.61 0.59 0.53 0.48 0.45 0.46 0.48 0.49 0.45 0.41 0.41 0.42 0.45 0.45 0.46 0.47 0.54 0.57 0.62 0.58 0.64 0.70 0.76 0.83 0.86 0.87 0.92 1.01 1.12 1.10 0.97 0.94 1.01 0.88 0.74 0.64 0.69 0.63 0.51 0.47
0.72 0.62 0.59 0.60 0.59 0.57 0.47 0.41 0.41 0.41 0.43 0.40 0.38 0.38 0.38 0.35 0.35 0.35 0.41 0.56 0.67 0.64 0.58 0.62 0.78 0.94 0.99 0.97 0.87 0.89 1.01 1.10 1.10 1.11 0.97 0.98 0.98 0.85 0.78 0.65 0.65 0.66 0.67

GEFSMA_prec_meanprecacc_204.txt.gz
Total_Precipitation_Accumulation
1.88 2.18 2.16 2.26 1.92 1.91 1.98 1.91 1.71 1.63 1.48 1.33 1.25 1.25 1.30 1.24 1.31 1.48 1.46 1.45 1.56 1.83 2.24 2.45 2.42 2.42 2.36 2.26 2.12 1.98 1.82 1.70 1.57 1.41 1.21 1.06 1.00 0.97 0.97 0.99 0.97 0.91 0.88
2.37 2.71 2.78 2.67 2.37 2.36 2.57 2.61 2.40 2.19 1.99 1.89 1.67 1.64 1.65 1.65 1.73 1.76 1.68 1.64 1.54 1.59 1.99 2.38 2.65 2.83 2.79 2.52 2.26 2.11 2.07 1.96 1.80 1.64 1.49 1.34 1.23 1.18 1.13 1.10 1.08 1.02 0.93
2.88 2.92 3.13 3.05 2.88 2.83 2.83 2.80 2.98 2.97 2.54 2.25 2.09 2.05 2.08 2.03 2.06 2.08 2.11 2.09 1.85 1.72 1.82 2.09 2.36 2.56 2.67 2.65 2.51 2.35 2.34 2.14 1.95 1.79 1.67 1.56 1.48 1.40 1.33 1.23 1.20 1.19 1.12
3.22 3.23 3.15 3.12 3.07 3.08 3.32 3.38 3.32 3.28 3.09 2.78 2.58 2.34 2.24 2.30 2.13 2.09 2.09 2.17 2.21 1.91 1.72 1.70 1.85 2.03 2.31 2.62 2.79 2.81 2.67 2.44 2.20 2.02 1.93 1.83 1.69 1.54 1.39 1.30 1.27 1.28 1.24
3.61 3.65 3.62 3.67 3.54 3.58 3.56 3.41 3.68 3.60 3.44 3.13 2.66 2.42 2.21 2.23 2.12 1.87 1.90 2.01 2.08 1.96 1.87 1.69 1.73 1.87 2.16 2.49 2.75 2.94 2.92 2.74 2.55 2.38 2.28 2.16 1.99 1.80 1.60 1.47 1.41 1.40 1.40
4.35 4.31 4.20 4.18 4.09 4.00 3.87 3.79 3.79 3.57 3.41 3.16 2.62 2.38 2.15 1.92 1.86 1.84 1.67 1.71 1.78 1.68 1.75 1.76 1.83 1.73 1.90 2.15 2.41 2.65 2.75 2.81 2.74 2.52 2.36 2.33 2.23 2.03 1.85 1.72 1.63 1.56 1.55
4.76 4.60 4.48 4.50 4.32 4.15 3.95 3.82 3.74 3.62 3.31 3.10 2.97 2.60 2.10 1.80 1.67 1.57 1.55 1.55 1.49 1.52 1.71 1.72 1.72 1.68 1.65 1.82 1.93 2.11 2.40 2.61 2.79 2.77 2.65 2.55 2.34 2.10 1.98 1.92 1.88 1.81 1.71
5.09 4.88 4.85 4.72 4.46 4.27 4.04 3.85 3.74 3.63 3.33 3.19 3.16 3.07 2.44 1.96 1.55 1.23 1.29 1.32 1.33 1.40 1.46 1.44 1.43 1.49 1.54 1.64 1.62 1.80 2.07 2.31 2.56 2.71 2.73 2.52 2.37 2.19 2.10 2.07 2.06 2.03 1.96
5.46 5.27 5.16 4.87 4.61 4.32 4.00 3.74 3.58 3.48 3.37 3.27 3.14 3.22 2.78 2.22 1.76 1.40 1.20 1.13 1.21 1.35 1.37 1.37 1.32 1.29 1.37 1.53 1.62 1.65 1.72 1.76 2.01 2.29 2.42 2.46 2.42 2.29 2.20 2.17 2.14 2.14 2.17
4.87 4.74 4.68 4.48 4.23 3.93 3.70 3.44 3.30 3.20 3.29 3.14 3.04 2.89 2.69 2.39 2.12 1.76 1.42 1.23 1.20 1.24 1.30 1.30 1.29 1.31 1.34 1.45 1.56 1.57 1.53 1.45 1.57 1.78 1.93 1.99 2.06 2.06 2.07 2.07 2.05 2.08 2.15
4.15 3.90 3.83 3.73 3.55 3.33 3.12 3.03 3.00 2.90 2.86 2.75 2.63 2.59 2.57 2.51 2.24 1.94 1.62 1.36 1.28 1.25 1.27 1.31 1.41 1.42 1.43 1.46 1.45 1.43 1.40 1.30 1.32 1.45 1.56 1.59 1.67 1.79 1.89 1.88 1.88 1.94 2.07
3.49 3.12 2.96 2.87 2.74 2.61 2.57 2.56 2.57 2.50 2.46 2.44 2.41 2.31 2.24 2.26 2.14 2.02 1.74 1.50 1.46 1.35 1.29 1.27 1.27 1.34 1.41 1.44 1.44 1.50 1.27 1.15 1.13 1.16 1.28 1.39 1.47 1.56 1.65 1.75 1.86 1.94 2.04
2.86 2.55 2.38 2.32 2.23 2.17 2.15 2.21 2.24 2.17 2.11 2.13 2.14 2.09 2.04 2.00 1.95 1.94 1.97 1.81 1.53 1.29 1.22 1.23 1.21 1.20 1.22 1.34 1.45 1.48 1.19 1.08 1.07 1.12 1.16 1.20 1.28 1.36 1.43 1.48 1.60 1.74 1.80
2.32 2.13 1.99 1.90 1.82 1.73 1.71 1.79 1.87 1.90 1.85 1.90 1.92 1.98 1.94 1.86 1.82 1.77 1.82 1.90 1.83 1.60 1.41 1.32 1.30 1.30 1.32 1.34 1.47 1.47 1.22 1.26 1.17 1.18 1.17 1.12 1.14 1.15 1.16 1.16 1.19 1.29 1.40
1.74 1.62 1.54 1.48 1.42 1.39 1.43 1.52 1.59 1.55 1.54 1.61 1.70 1.79 1.81 1.83 1.84 1.78 1.80 1.86 1.95 1.90 1.73 1.55 1.49 1.45 1.48 1.50 1.62 1.28 1.29 1.45 1.30 1.20 1.13 1.07 1.06 1.00 0.95 0.93 0.90 0.89 0.91
1.43 1.33 1.26 1.23 1.20 1.18 1.20 1.21 1.28 1.30 1.26 1.30 1.43 1.56 1.65 1.71 1.83 1.86 1.92 1.94 1.95 1.96 1.90 1.66 1.59 1.57 1.52 1.46 1.69 1.43 1.40 1.45 1.26 1.12 1.01 0.94 0.90 0.85 0.82 0.82 0.84 0.83 0.82
1.48 1.33 1.20 1.20 1.17 1.12 1.07 1.07 1.08 1.10 1.14 1.18 1.22 1.33 1.42 1.47 1.59 1.67 1.72 1.74 1.82 1.87 1.87 1.73 1.63 1.61 1.57 1.55 1.59 1.44 1.34 1.27 1.19 1.11 0.96 0.88 0.84 0.80 0.78 0.79 0.81 0.80 0.80
1.17 1.09 1.03 1.04 1.02 0.97 0.96 0.93 0.87 0.87 0.90 0.95 1.01 1.09 1.16 1.20 1.30 1.32 1.41 1.48 1.52 1.59 1.66 1.74 1.80 1.73 1.63 1.61 1.53 1.38 1.19 1.05 1.02 1.03 0.92 0.87 0.86 0.87 0.87 0.87 0.85 0.82 0.77
1.08 1.06 1.01 0.97 0.94 0.88 0.84 0.80 0.77 0.74 0.71 0.74 0.81 0.88 0.95 0.99 1.03 1.03 1.09 1.14 1.23 1.33 1.51 1.60 1.65 1.68 1.64 1.65 1.65 1.40 1.23 1.20 0.94 0.91 0.85 0.84 0.84 0.83 0.82 0.80 0.77 0.74 0.71
1.02 1.06 0.99 0.92 0.82 0.77 0.72 0.73 0.76 0.74 0.70 0.67 0.69 0.73 0.76 0.77 0.76 0.79 0.80 0.88 1.00 1.21 1.38 1.47 1.43 1.44 1.50 1.46 1.54 1.47 1.36 1.26 1.07 0.80 0.75 0.68 0.69 0.70 0.69 0.64 0.62 0.60 0.59
0.89 0.91 0.87 0.83 0.77 0.69 0.64 0.66 0.66 0.66 0.66 0.61 0.59 0.58 0.56 0.59 0.61 0.61 0.60 0.71 0.87 1.09 1.21 1.32 1.35 1.28 1.27 1.29 1.32 1.27 1.28 1.26 1.14 0.93 0.84 0.69 0.63 0.64 0.67 0.66 0.63 0.56 0.50
0.89 0.87 0.85 0.78 0.71 0.60 0.60 0.58 0.52 0.54 0.58 0.59 0.56 0.49 0.44 0.43 0.45 0.47 0.50 0.58 0.70 0.83 0.95 1.08 1.15 1.16 1.16 1.15 1.21 1.22 1.22 1.24 1.22 1.04 0.97 0.86 0.70 0.77 0.75 0.68 0.63 0.55 0.52
0.89 0.80 0.75 0.68 0.65 0.61 0.54 0.46 0.47 0.52 0.58 0.61 0.61 0.59 0.48 0.38 0.45 0.49 0.50 0.54 0.59 0.62 0.72 0.89 1.01 1.02 1.04 1.11 1.23 1.23 1.26 1.25 1.23 1.08 1.07 1.04 0.88 0.87 0.70 0.59 0.61 0.54 0.51
0.87 0.82 0.76 0.69 0.63 0.58 0.56 0.51 0.50 0.50 0.59 0.61 0.60 0.59 0.61 0.57 0.50 0.49 0.48 0.53 0.59 0.66 0.71 0.77 0.92 0.95 0.87 0.95 1.12 1.16 1.15 1.12 1.08 1.04 1.07 1.11 0.90 0.81 0.63 0.69 0.65 0.53 0.47
0.84 0.76 0.72 0.68 0.66 0.60 0.54 0.49 0.50 0.53 0.57 0.52 0.45 0.46 0.47 0.50 0.48 0.48 0.51 0.58 0.62 0.67 0.61 0.67 0.72 0.78 0.85 0.88 0.90 0.96 1.07 1.20 1.17 1.05 1.03 1.11 0.98 0.84 0.71 0.76 0.69 0.58 0.54
0.77 0.67 0.66 0.68 0.67 0.63 0.53 0.45 0.46 0.46 0.49 0.44 0.42 0.42 0.40 0.37 0.38 0.38 0.45 0.61 0.72 0.69 0.63 0.66 0.80 0.96 1.02 1.00 0.90 0.94 1.07 1.17 1.17 1.17 1.03 1.05 1.06 0.94 0.86 0.71 0.71 0.72 0.73

GEFSMA_prec_meanprecacc_210.txt.gz
Total_Precipitation_Accumulation
1.93 2.22 2.21 2.33 2.00 1.99 2.05 1.96 1.75 1.66 1.52 1.36 1.27 1.27 1.32 1.25 1.34 1.53 1.51 1.51 1.65 1.97 2.36 2.53 2.51 2.50 2.42 2.31 2.16 2.03 1.86 1.75 1.61 1.45 1.25 1.10 1.04 1.02 1.03 1.06 1.04 0.99 0.97
2.43 2.78 2.86 2.77 2.50 2.50 2.68 2.69 2.46 2.24 2.02 1.91 1.69 1.66 1.67 1.67 1.77 1.80 1.74 1.69 1.60 1.67 2.09 2.47 2.74 2.93 2.88 2.60 2.31 2.16 2.12 2.01 1.86 1.69 1.53 1.37 1.26 1.22 1.18 1.15 1.15 1.10 1.01
3.02 3.13 3.36 3.26 3.03 2.95 2.94 2.89 3.04 3.01 2.58 2.28 2.11 2.07 2.10 2.06 2.10 2.13 2.15 2.12 1.89 1.77 1.88 2.17 2.44 2.64 2.74 2.73 2.58 2.41 2.40 2.19 2.00 1.83 1.70 1.59 1.51 1.44 1.36 1.28 1.26 1.27 1.19
3.36 3.40 3.40 3.39 3.26 3.22 3.44 3.48 3.39 3.34 3.14 2.83 2.60 2.36 2.26 2.33 2.17 2.13 2.12 2.20 2.25 1.94 1.76 1.75 1.90 2.08 2.37 2.69 2.86 2.88 2.73 2.49 2.25 2.06 1.97 1.87 1.73 1.58 1.43 1.34 1.31 1.33 1.30
3.80 3.81 3.76 3.85 3.69 3.70 3.66 3.50 3.75 3.66 3.49 3.17 2.69 2.45 2.24 2.27 2.17 1.92 1.93 2.03 2.11 2.00 1.90 1.72 1.77 1.92 2.22 2.55 2.83 3.02 3.00 2.82 2.61 2.42 2.32 2.21 2.04 1.84 1.64 1.50 1.45 1.44 1.44
4.51 4.46 4.33 4.32 4.21 4.10 3.96 3.87 3.85 3.63 3.47 3.21 2.66 2.42 2.18 1.95 1.90 1.88 1.72 1.76 1.82 1.71 1.78 1.79 1.87 1.77 1.95 2.22 2.50 2.74 2.84 2.90 2.82 2.59 2.41 2.38 2.28 2.09 1.89 1.76 1.67 1.60 1.59
4.92 4.76 4.60 4.63 4.46 4.26 4.04 3.90 3.81 3.70 3.38 3.18 3.05 2.67 2.15 1.84 1.71 1.61 1.62 1.62 1.55 1.58 1.77 1.77 1.77 1.73 1.69 1.88 1.99 2.19 2.47 2.69 2.87 2.85 2.73 2.62 2.40 2.16 2.03 1.96 1.92 1.87 1.77
5.21 5.00 4.96 4.82 4.57 4.38 4.14 3.94 3.82 3.70 3.40 3.27 3.23 3.14 2.50 2.02 1.58 1.27 1.35 1.41 1.39 1.44 1.49 1.48 1.47 1.52 1.56 1.67 1.65 1.83 2.12 2.37 2.64 2.81 2.83 2.62 2.46 2.26 2.17 2.14 2.12 2.08 2.02
5.54 5.35 5.27 4.98 4.73 4.44 4.10 3.83 3.65 3.54 3.42 3.34 3.21 3.28 2.83 2.26 1.80 1.43 1.23 1.18 1.25 1.38 1.40 1.40 1.35 1.31 1.39 1.56 1.65 1.68 1.76 1.80 2.07 2.36 2.51 2.55 2.52 2.39 2.29 2.26 2.22 2.21 2.23
4.93 4.80 4.75 4.56 4.34 4.03 3.79 3.53 3.39 3.28 3.37 3.21 3.11 2.95 2.74 2.45 2.17 1.80 1.44 1.26 1.24 1.27 1.32 1.33 1.31 1.33 1.36 1.47 1.58 1.60 1.57 1.50 1.62 1.84 2.03 2.10 2.16 2.16 2.17 2.17 2.16 2.18 2.24
4.20 3.95 3.88 3.77 3.61 3.40 3.20 3.11 3.08 2.99 2.95 2.83 2.72 2.67 2.65 2.60 2.32 2.01 1.68 1.41 1.32 1.29 1.31 1.34 1.44 1.45 1.45 1.48 1.48 1.46 1.45 1.36 1.37 1.50 1.62 1.67 1.77 1.89 1.99 2.00 1.99 2.05 2.17
3.53 3.16 3.01 2.91 2.78 2.67 2.65 2.64 2.64 2.59 2.57 2.54 2.49 2.39 2.31 2.33 2.21 2.10 1.82 1.58 1.53 1.42 1.35 1.32 1.32 1.38 1.45 1.47 1.46 1.55 1.31 1.19 1.17 1.20 1.32 1.43 1.53 1.63 1.74 1.84 1.95 2.04 2.14
2.91 2.60 2.41 2.35 2.26 2.21 2.21 2.29 2.33 2.26 2.20 2.22 2.20 2.13 2.09 2.06 2.00 1.98 2.01 1.85 1.59 1.35 1.27 1.27 1.24 1.24 1.28 1.38 1.48 1.51 1.22 1.10 1.10 1.15 1.19 1.22 1.32 1.40 1.49 1.56 1.69 1.84 1.91
2.34 2.16 2.02 1.93 1.86 1.78 1.76 1.85 1.95 2.00 1.95 1.97 1.98 2.04 1.99 1.91 1.86 1.80 1.84 1.91 1.84 1.63 1.44 1.36 1.34 1.34 1.35 1.37 1.50 1.49 1.25 1.28 1.18 1.20 1.19 1.14 1.17 1.19 1.21 1.21 1.24 1.35 1.47
1.75 1.64 1.57 1.51 1.46 1.44 1.48 1.59 1.65 1.63 1.62 1.68 1.77 1.86 1.87 1.87 1.87 1.81 1.82 1.88 1.97 1.92 1.75 1.56 1.52 1.47 1.51 1.53 1.64 1.31 1.31 1.47 1.32 1.22 1.15 1.10 1.08 1.03 0.98 0.97 0.94 0.93 0.96
1.44 1.34 1.28 1.25 1.24 1.22 1.25 1.28 1.35 1.39 1.36 1.39 1.50 1.62 1.70 1.75 1.85 1.88 1.95 1.97 1.98 1.99 1.93 1.69 1.62 1.58 1.55 1.49 1.74 1.47 1.43 1.47 1.28 1.14 1.03 0.96 0.93 0.89 0.85 0.84 0.86 0.86 0.85
1.50 1.34 1.22 1.23 1.21 1.16 1.12 1.13 1.15 1.20 1.26 1.28 1.30 1.39 1.47 1.52 1.63 1.70 1.76 1.77 1.86 1.91 1.90 1.75 1.65 1.63 1.60 1.59 1.62 1.49 1.38 1.30 1.21 1.13 0.97 0.89 0.87 0.84 0.82 0.82 0.83 0.82 0.82
1.19 1.12 1.06 1.08 1.07 1.02 1.01 0.97 0.92 0.94 0.99 1.04 1.10 1.17 1.23 1.27 1.35 1.37 1.47 1.52 1.55 1.62 1.68 1.76 1.81 1.75 1.68 1.65 1.55 1.41 1.23 1.08 1.05 1.05 0.94 0.89 0.88 0.89 0.90 0.91 0.89 0.86 0.80
1.10 1.08 1.04 1.01 0.99 0.94 0.88 0.84 0.82 0.79 0.75 0.79 0.87 0.93 1.01 1.07 1.09 1.08 1.13 1.17 1.26 1.35 1.54 1.62 1.67 1.71 1.68 1.68 1.69 1.44 1.28 1.24 0.98 0.94 0.87 0.86 0.86 0.85 0.84 0.83 0.80 0.78 0.75
1.05 1.10 1.04 0.97 0.88 0.82 0.78 0.79 0.83 0.80 0.75 0.72 0.73 0.77 0.79 0.81 0.81 0.83 0.84 0.90 1.02 1.23 1.41 1.49 1.46 1.47 1.53 1.49 1.59 1.53 1.42 1.32 1.13 0.85 0.79 0.72 0.73 0.73 0.72 0.67 0.66 0.64 0.65
0.94 0.97 0.93 0.88 0.82 0.74 0.70 0.72 0.72 0.72 0.70 0.65 0.62 0.61 0.59 0.61 0.65 0.64 0.63 0.72 0.89 1.11 1.23 1.34 1.38 1.32 1.30 1.33 1.36 1.31 1.33 1.32 1.20 0.99 0.91 0.74 0.67 0.68 0.71 0.70 0.68 0.61 0.56
0.96 0.94 0.91 0.83 0.75 0.63 0.65 0.63 0.56 0.57 0.61 0.62 0.59 0.52 0.46 0.46 0.47 0.50 0.53 0.60 0.72 0.85 0.97 1.11 1.18 1.19 1.18 1.18 1.24 1.25 1.26 1.30 1.29 1.11 1.05 0.95 0.77 0.84 0.81 0.73 0.68 0.60 0.58
0.95 0.87 0.81 0.73 0.68 0.64 0.57 0.50 0.50 0.55 0.60 0.63 0.63 0.62 0.51 0.41 0.47 0.51 0.53 0.56 0.60 0.64 0.75 0.91 1.03 1.05 1.07 1.15 1.26 1.27 1.29 1.29 1.28 1.16 1.16 1.14 0.99 0.95 0.76 0.64 0.66 0.59 0.55
0.90 0.86 0.81 0.73 0.65 0.60 0.58 0.54 0.53 0.53 0.62 0.65 0.64 0.64 0.64 0.60 0.52 0.51 0.49 0.54 0.61 0.68 0.74 0.80 0.95 0.98 0.91 0.98 1.14 1.18 1.18 1.16 1.12 1.09 1.15 1.20 0.99 0.90 0.69 0.72 0.67 0.56 0.50
0.86 0.79 0.77 0.73 0.69 0.63 0.57 0.52 0.53 0.57 0.61 0.58 0.51 0.51 0.51 0.52 0.50 0.49 0.52 0.59 0.63 0.69 0.63 0.68 0.74 0.80 0.88 0.91 0.93 1.00 1.11 1.23 1.21 1.10 1.09 1.18 1.07 0.92 0.78 0.81 0.73 0.60 0.56
0.80 0.70 0.69 0.71 0.70 0.67 0.56 0.48 0.49 0.49 0.53 0.50 0.47 0.45 0.42 0.38 0.38 0.38 0.46 0.62 0.73 0.69 0.64 0.67 0.81 0.97 1.04 1.02 0.93 0.98 1.10 1.20 1.20 1.21 1.09 1.12 1.14 1.03 0.94 0.78 0.75 0.75 0.76